• Join FlightAware (Why Join?)
  • Login
  • US Flag 
07:14PM EDT


 

Airport Tracker/Info


-or-


 

Live Flight TrackerFlight Track Log ✈ UAL4202 ✈ 17-Apr-2013 ✈ KSTL - KEWR

Flight Track Log - Related Links

Times and Time Zones

All times are in EDT time to prevent confusion due to time zone crossing. See the UAL4202 flight status page for this flight to view local times or setup timezone preferences in your user account.

Time Position Orientation Groundspeed Altitude Reporting Facility
EDT Latitude Longitude Course Direction KTS MPH feet Rate Location/Type
12:03AM 38.7244 -90.2339 94° East 200 230 2,600  Level FAA TRACON SMA TRACON (SMA)
12:03AM 38.7247 -90.2086 89° East 221 254 3,200 2,220 Climbing FAA TRACON SMA TRACON (SMA)
12:03AM 38.7258 -90.1767 87° East 234 269 4,100 2,400 Climbing FAA TRACON SMA TRACON (SMA)
12:04AM 38.7264 -90.1508 88° East 237 273 4,800 2,100 Climbing FAA TRACON SMA TRACON (SMA)
12:04AM 38.7269 -90.1242 88° East 241 277 5,500 1,800 Climbing FAA TRACON SMA TRACON (SMA)
12:04AM 38.7269 -90.0975 90° East 245 282 6,000 1,920 Climbing FAA TRACON SMA TRACON (SMA)
12:05AM 38.7261 -90.0625 92° East 254 292 6,800 2,340 Climbing FAA TRACON SMA TRACON (SMA)
12:05AM 38.7253 -90.0344 92° East 255 293 7,600 2,280 Climbing FAA TRACON SMA TRACON (SMA)
12:05AM 38.7244 -90.0067 92° East 255 293 8,300 2,100 Climbing FAA TRACON SMA TRACON (SMA)
12:06AM 38.7610 -89.8181 87° East  Level FlightAware Approximate
12:06AM 38.7219 -89.9719 95° East 256 295 9,000  Level FAA TRACON SMA TRACON (SMA)
12:06AM 38.7208 -89.9425 93° East 266 306 9,400 1,200 Climbing FAA TRACON SMA TRACON (SMA)
12:06AM 38.7189 -89.9111 95° East 281 323 9,800 1,020 Climbing FAA TRACON SMA TRACON (SMA)
12:07AM 38.7662 -89.6807 87° East  Level FlightAware Approximate
12:07AM 38.7164 -89.8694 94° East 304 350 10,100  Level FAA TRACON SMA TRACON (SMA)
12:07AM 38.7136 -89.8333 96° East 323 372 10,300 600 Climbing FAA TRACON SMA TRACON (SMA)
12:07AM 38.7122 -89.7958 93° East 340 391 10,500 600 Climbing FAA TRACON SMA TRACON (SMA)
12:08AM 38.7092 -89.7469 95° East 359 413 10,700 540 Climbing FAA TRACON SMA TRACON (SMA)
12:08AM 38.7122 -89.7058 85° East 375 432 10,900 600 Climbing FAA TRACON SMA TRACON (SMA)
12:08AM 38.7258 -89.6661 66° East 391 450 11,100 720 Climbing FAA TRACON SMA TRACON (SMA)
12:09AM 38.7444 -89.6164 64° Northeast 401 461 11,400 840 Climbing FAA TRACON SMA TRACON (SMA)
12:09AM 38.7600 -89.5758 64° Northeast 408 470 11,700 900 Climbing FAA TRACON SMA TRACON (SMA)
12:09AM 38.7733 -89.5350 67° East 411 473 12,000 1,020 Climbing FAA TRACON SMA TRACON (SMA)
12:10AM 38.7919 -89.4828 65° Northeast 414 476 12,400 1,020 Climbing FAA TRACON SMA TRACON (SMA)
12:10AM 38.8042 -89.4406 70° East 415 478 12,700 1,020 Climbing FAA TRACON SMA TRACON (SMA)
12:10AM 38.8228 -89.3875 66° East 419 482 13,100 1,020 Climbing FAA TRACON SMA TRACON (SMA)
12:11AM 38.8358 -89.3444 69° East 420 483 13,400 900 Climbing FAA TRACON SMA TRACON (SMA)
12:11AM 38.8486 -89.3014 69° East 421 484 13,700 1,020 Climbing FAA TRACON SMA TRACON (SMA)
12:11AM 38.8636 -89.2464 71° East 424 488 14,100 1,020 Climbing FAA TRACON SMA TRACON (SMA)
12:12AM 38.8781 -89.2028 67° East 427 491 14,400 900 Climbing FAA TRACON SMA TRACON (SMA)
12:12AM 38.8847 -89.1572 79° East 424 488 14,700 900 Climbing FAA TRACON SMA TRACON (SMA)
12:12AM 38.8978 -89.1131 69° East 426 490 15,000 720 Climbing FAA TRACON SMA TRACON (SMA)
12:13AM 38.9064 -89.0797 72° East 428 493 15,200 300 Climbing FAA TRACON SMA TRACON (SMA)
12:13AM 38.9064 -89.0797 237° Southwest 428 493 15,200 1,320 Level FAA TRACON SMA TRACON (SMA)
12:14AM 38.9450 -88.9953 60° Northeast 431 496 16,300 1,320 Climbing Kansas City Center
12:15AM 38.9875 -88.8633 67° East 438 504 17,200 1,020 Climbing Kansas City Center
12:16AM 39.0303 -88.7175 69° East 438 504 18,400 960 Climbing Kansas City Center
12:17AM 39.0692 -88.5711 71° East 438 504 19,300 900 Climbing Kansas City Center
12:18AM 39.1106 -88.4239 70° East 436 502 20,300 960 Climbing Kansas City Center
12:19AM 39.1528 -88.2717 70° East 439 505 21,300 960 Climbing Kansas City Center
12:20AM 39.1972 -88.1183 69° East 445 512 22,300 960 Climbing Kansas City Center
12:21AM 39.2422 -87.9608 70° East 456 525 23,300 960 Climbing Kansas City Center
12:22AM 39.3117 -87.8239 57° Northeast 454 522 24,300 960 Climbing Kansas City Center
12:23AM 39.3831 -87.6881 56° Northeast 453 521 25,300 900 Climbing Kansas City Center
12:24AM 39.4539 -87.5531 56° Northeast 452 520 26,200 780 Climbing Kansas City Center
12:25AM 39.5356 -87.3906 57° Northeast 453 521 27,100 720 Climbing Indianapolis Center
12:26AM 39.6039 -87.2550 57° Northeast 449 517 27,900 720 Climbing Indianapolis Center
12:27AM 39.6739 -87.1203 56° Northeast 448 516 28,600 540 Climbing Indianapolis Center
12:28AM 39.7458 -86.9861 55° Northeast 449 517 29,100 660 Climbing Indianapolis Center
12:29AM 39.7744 -86.8278 77° East 451 519 30,000 840 Climbing Indianapolis Center
12:30AM 39.7861 -86.6667 85° East 446 513 30,900 840 Climbing Indianapolis Center
12:31AM 39.7981 -86.5083 84° East 442 509 31,800 840 Climbing Indianapolis Center
12:32AM 39.8128 -86.3447 83° East 449 517 32,700 840 Climbing Indianapolis Center
12:33AM 39.8492 -86.1875 73° East 453 521 33,600 780 Climbing Indianapolis Center
12:34AM 39.8869 -86.0297 73° East 454 522 34,400 600 Climbing Indianapolis Center
12:35AM 39.9247 -85.8767 72° East 452 520 34,900 240 Climbing Indianapolis Center
12:36AM 39.9611 -85.7175 73° East 453 521 35,000  Climbing Indianapolis Center
12:37AM 39.9992 -85.5606 72° East 451 519 35,000 180 Level Indianapolis Center
12:38AM 40.0358 -85.4047 73° East 448 516 35,400 600 Climbing Indianapolis Center
12:39AM 40.0728 -85.2497 73° East 444 511 36,300 720 Climbing Indianapolis Center
12:40AM 40.1097 -85.0947 73° East 442 509 36,900 300 Climbing Indianapolis Center
12:41AM 40.1456 -84.9383 73° East 445 512 37,000  Climbing Indianapolis Center
12:42AM 40.1825 -84.7758 73° East 460 529 36,900  Descending Indianapolis Center
12:43AM 40.2197 -84.6156 73° East 456 525 37,000  Climbing Indianapolis Center
12:44AM 40.2575 -84.4544 73° East 457 526 37,000  Level Indianapolis Center
12:45AM 40.2919 -84.2964 74° East 449 517 37,000 -60 Level Indianapolis Center
12:46AM 40.3267 -84.1378 74° East 447 514 36,900  Descending Indianapolis Center
12:48AM 40.3743 -83.9228 74° East  Level FlightAware Approximate
12:48AM 40.3978 -83.8158 74° East 457 526 37,000  Level Indianapolis Center
12:49AM 40.4342 -83.6494 74° East 467 537 37,000  Level Indianapolis Center
12:50AM 40.4706 -83.4850 74° East 464 534 37,000  Level Indianapolis Center
12:51AM 40.5047 -83.3236 74° East 456 525 37,000  Level Indianapolis Center
12:52AM 40.5400 -83.1600 74° East 458 527 37,000  Level Indianapolis Center
12:53AM 40.5753 -82.9947 74° East 462 532 37,000  Level Indianapolis Center
12:54AM 40.6089 -82.8328 75° East 459 528 37,000  Level Indianapolis Center
12:55AM 40.6419 -82.6728 75° East 452 520 37,000  Level Indianapolis Center
12:56AM 40.6756 -82.5119 75° East 453 521 37,000  Level Indianapolis Center
12:57AM 40.7103 -82.3417 75° East 449 517 37,000  Level Cleveland Center
12:58AM 40.7417 -82.1808 76° East 449 517 37,000  Level Cleveland Center
12:59AM 40.7731 -82.0225 75° East 449 517 37,000  Level Cleveland Center
01:00AM 40.8064 -81.8614 75° East 449 517 37,000  Level Cleveland Center
01:01AM 40.8392 -81.7000 75° East 449 517 37,000  Level Cleveland Center
01:02AM 40.8700 -81.5386 76° East 449 517 37,000  Level Cleveland Center
01:03AM 40.9025 -81.3742 75° East 449 517 37,000  Level Cleveland Center
01:04AM 40.9347 -81.2125 75° East 449 517 37,000  Level Cleveland Center
01:05AM 40.9603 -81.0781 76° East 449 517 37,000  Level Cleveland Center
01:06AM 40.9964 -80.8939 75° East 454 522 37,000  Level Cleveland Center
01:07AM 41.0219 -80.7289 78° East 454 522 37,000  Level Cleveland Center
01:08AM 41.0364 -80.5556 84° East 454 522 37,000  Level Cleveland Center
01:09AM 41.0531 -80.3875 82° East 459 528 37,000  Level Cleveland Center
01:10AM 41.0692 -80.2167 83° East 464 534 37,000  Level Cleveland Center
01:11AM 41.0853 -80.0458 83° East 464 534 37,000 -60 Level Cleveland Center
01:12AM 41.1011 -79.8750 83° East 464 534 36,900 -480 Descending Cleveland Center
01:13AM 41.1164 -79.6928 84° East 459 528 36,100 -840 Descending Cleveland Center
01:14AM 41.1317 -79.5192 83° East 459 528 35,300 -600 Descending Cleveland Center
01:15AM 41.1467 -79.3533 83° East 464 534 35,000 -180 Descending Cleveland Center
01:16AM 41.1592 -79.1822 84° East 464 534 35,000  Level Cleveland Center
01:17AM 41.1758 -79.0078 83° East 464 534 35,000  Level Cleveland Center
01:18AM 41.1900 -78.8311 84° East 472 543 35,000  Level Cleveland Center
01:19AM 41.2058 -78.6511 83° East 478 550 35,000  Level Cleveland Center
01:21AM 41.2242 -78.4017 84° East 480 552 35,000  Level New York Center
01:22AM 41.2372 -78.2267 84° East 480 552 35,000  Level New York Center
01:23AM 41.2503 -78.0514 84° East 480 552 35,000  Level New York Center
01:24AM 41.2631 -77.8758 84° East 475 547 35,000  Level New York Center
01:25AM 41.2753 -77.7033 85° East 475 547 35,000  Level New York Center
01:26AM 41.2664 -77.5311 94° East 475 547 35,000  Level New York Center
01:27AM 41.2375 -77.3433 102° East 475 547 35,000  Level New York Center
01:28AM 41.2114 -77.1697 101° East 475 547 35,000 -180 Level New York Center
01:29AM 41.1853 -76.9964 101° East 475 547 34,700 -1,320 Descending New York Center
01:30AM 41.1567 -76.8256 102° East 475 547 32,400 -2,400 Descending New York Center
01:31AM 41.1297 -76.6550 102° East 475 547 30,000 -2,460 Descending New York Center
01:32AM 41.1064 -76.4961 101° East 482 555 27,600 -2,400 Descending New York Center
01:33AM 41.0792 -76.3203 102° East 482 555 25,200 -2,400 Descending New York Center
01:34AM 41.0497 -76.1472 103° East 482 555 22,800 -2,460 Descending New York Center
01:35AM 41.0256 -75.9858 101° East 471 542 20,400 -2,460 Descending New York Center
01:36AM 40.9978 -75.8106 102° East 446 513 17,900 -2,460 Descending New York Center
01:37AM 40.9731 -75.6575 102° East 434 499 15,500 -2,520 Descending New York Center
01:38AM 40.9497 -75.5156 102° East 409 471 13,000 -2,340 Descending New York Center
01:39AM 40.9275 -75.3878 103° East 395 455 10,900 -1,740 Descending New York Center
01:40AM 40.9056 -75.2600 103° East 358 412 9,600 -960 Descending New York Center
01:41AM 40.8886 -75.1519 102° East 306 352 9,100 -300 Descending New York Center
01:42AM 40.8592 -75.0511 111° Southeast 290 334 9,100 -60 Level New York Center
01:43AM 40.8225 -74.9694 121° Southeast 285 328 9,000  Descending New York Center
01:44AM 40.7781 -74.8653 119° Southeast 291 335 9,100  Climbing New York Center
01:45AM 40.7414 -74.7808 120° Southeast 291 335 9,000 -60 Descending New York Center
01:46AM 40.6969 -74.6825 121° Southeast 291 335 9,000 -600 Level New York Center
01:47AM 40.6667 -74.6000 116° Southeast 295 339 8,000 -1,380 Descending New York TRACON
01:48AM 40.6167 -74.5167 128° Southeast 284 327 6,500 -1,560 Descending New York TRACON
01:49AM 40.6000 -74.4167 102° East 268 308 4,900 -1,500 Descending New York TRACON
01:50AM 40.6000 -74.3167 90° East 246 283 3,500 -1,560 Descending New York TRACON
01:51AM 40.6167 -74.2500 72° East 179 206 1,800 -1,140 Descending New York TRACON
01:52AM 40.6333 -74.2000 66° East 140 161 1,300 -540 Descending New York TRACON